TimeAKDT,TemperatureF,Dew PointF,Humidity,Sea Level PressureIn,VisibilityMPH,Wind Direction,Wind SpeedMPH,Gust SpeedMPH,PrecipitationIn,Events,Conditions,WindDirDegrees,DateUTC
12:16 AM,3.2,-5.8,66,29.98,10.0,South,8.1,-,N/A,,Overcast,190,2012-11-02 08:16:00
12:36 AM,3.2,-5.8,66,29.98,10.0,South,8.1,-,N/A,,Overcast,190,2012-11-02 08:36:00
12:56 AM,3.2,-7.6,61,29.98,10.0,SSW,5.8,-,N/A,,Overcast,210,2012-11-02 08:56:00
1:16 AM,3.2,-5.8,66,29.97,10.0,South,9.2,-,N/A,,Overcast,190,2012-11-02 09:16:00
1:36 AM,3.2,-5.8,66,29.97,10.0,South,8.1,-,N/A,,Overcast,190,2012-11-02 09:36:00
1:56 AM,3.2,-4.0,72,29.96,10.0,South,9.2,-,N/A,,Overcast,190,2012-11-02 09:56:00
2:16 AM,3.2,-2.2,78,29.95,7.0,South,11.5,-,N/A,,Overcast,190,2012-11-02 10:16:00
2:36 AM,3.2,-4.0,72,29.95,3.0,South,9.2,-,N/A,,Overcast,180,2012-11-02 10:36:00
2:56 AM,3.2,-4.0,72,29.95,2.5,South,9.2,-,N/A,,Overcast,190,2012-11-02 10:56:00
3:16 AM,3.2,-2.2,78,29.95,3.0,SW,4.6,-,N/A,,Overcast,220,2012-11-02 11:16:00
3:36 AM,3.2,-2.2,78,29.94,3.0,South,6.9,-,N/A,,Overcast,180,2012-11-02 11:36:00
3:56 AM,3.2,-2.2,78,29.94,3.0,SW,3.5,-,N/A,,Overcast,220,2012-11-02 11:56:00
4:16 AM,3.2,-2.2,78,29.94,3.0,Calm,Calm,-,N/A,,Overcast,0,2012-11-02 12:16:00
4:36 AM,3.2,-2.2,78,29.93,4.0,SSE,3.5,-,N/A,,Overcast,160,2012-11-02 12:36:00
4:56 AM,5.0,-2.2,72,29.92,5.0,ESE,4.6,-,N/A,,Overcast,120,2012-11-02 12:56:00
5:16 AM,6.8,-0.4,72,29.92,2.5,East,4.6,-,N/A,,Overcast,90,2012-11-02 13:16:00
5:36 AM,6.8,-0.4,72,29.91,3.0,Calm,Calm,-,N/A,,Overcast,0,2012-11-02 13:36:00
5:56 AM,10.4,3.2,73,29.91,4.0,Calm,Calm,-,N/A,,Overcast,0,2012-11-02 13:56:00
6:16 AM,10.4,5.0,79,29.91,3.0,ENE,9.2,-,N/A,,Overcast,70,2012-11-02 14:16:00
6:36 AM,12.2,6.8,79,29.91,4.0,ENE,6.9,-,N/A,,Overcast,60,2012-11-02 14:36:00
6:56 AM,14.0,6.8,73,29.91,5.0,Calm,Calm,-,N/A,,Overcast,0,2012-11-02 14:56:00
7:16 AM,14.0,5.0,67,29.91,5.0,Calm,Calm,-,N/A,,Overcast,0,2012-11-02 15:16:00
7:36 AM,14.0,3.2,62,29.91,5.0,NNE,9.2,-,N/A,,Overcast,20,2012-11-02 15:36:00
7:56 AM,14.0,6.8,73,29.91,3.0,NW,9.2,-,N/A,,Overcast,310,2012-11-02 15:56:00
8:16 AM,12.2,3.2,67,29.91,5.0,NNW,8.1,16.1,N/A,,Overcast,340,2012-11-02 16:16:00
8:36 AM,12.2,3.2,67,29.92,7.0,North,6.9,-,N/A,,Overcast,350,2012-11-02 16:36:00
8:56 AM,12.2,3.2,67,29.92,5.0,NW,5.8,-,N/A,,Overcast,310,2012-11-02 16:56:00
9:16 AM,12.2,1.4,62,29.92,3.0,NNW,11.5,18.4,N/A,,Overcast,330,2012-11-02 17:16:00
9:36 AM,12.2,1.4,62,29.92,5.0,NNW,11.5,18.4,N/A,,Overcast,340,2012-11-02 17:36:00
9:56 AM,12.2,1.4,62,29.92,3.0,NNW,12.7,19.6,N/A,,Overcast,340,2012-11-02 17:56:00
10:16 AM,10.4,1.4,67,29.93,1.5,North,10.4,17.3,N/A,,Overcast,360,2012-11-02 18:16:00
10:36 AM,12.2,1.4,62,29.94,2.0,North,12.7,16.1,N/A,,Overcast,360,2012-11-02 18:36:00
10:56 AM,10.4,1.4,67,29.94,3.0,North,12.7,16.1,N/A,,Overcast,10,2012-11-02 18:56:00
11:16 AM,10.4,1.4,67,29.94,1.8,NNE,17.3,20.7,N/A,,Overcast,30,2012-11-02 19:16:00
11:36 AM,8.6,1.4,73,29.95,0.5,NNE,18.4,23.0,N/A,,Overcast,30,2012-11-02 19:36:00
11:56 AM,8.6,1.4,73,29.95,0.5,NNE,18.4,25.3,N/A,,Overcast,30,2012-11-02 19:56:00
12:16 PM,8.6,1.4,73,29.96,0.5,NNE,17.3,23.0,N/A,,Overcast,30,2012-11-02 20:16:00
12:36 PM,8.6,1.4,73,29.96,0.5,NNE,17.3,23.0,N/A,,Overcast,30,2012-11-02 20:36:00
12:56 PM,8.6,1.4,73,29.96,1.0,NNE,11.5,17.3,N/A,,Overcast,20,2012-11-02 20:56:00
1:16 PM,8.6,-0.4,67,29.96,1.2,NNE,13.8,17.3,N/A,,Overcast,30,2012-11-02 21:16:00
1:36 PM,8.6,-0.4,67,29.96,2.5,North,9.2,20.7,N/A,,Overcast,10,2012-11-02 21:36:00
1:56 PM,8.6,-2.2,62,29.96,5.0,North,8.1,-,N/A,,Overcast,10,2012-11-02 21:56:00
2:16 PM,8.6,-2.2,62,29.96,4.0,North,11.5,16.1,N/A,,Overcast,350,2012-11-02 22:16:00
2:36 PM,8.6,-2.2,62,29.96,5.0,North,10.4,16.1,N/A,,Overcast,360,2012-11-02 22:36:00
2:56 PM,8.6,-4.0,57,29.95,4.0,NNE,11.5,18.4,N/A,,Overcast,20,2012-11-02 22:56:00
3:16 PM,8.6,-4.0,57,29.95,4.0,North,10.4,18.4,N/A,,Overcast,10,2012-11-02 23:16:00
3:36 PM,6.8,-4.0,61,29.95,2.5,North,12.7,18.4,N/A,,Overcast,360,2012-11-02 23:36:00
3:56 PM,6.8,-4.0,61,29.95,3.0,NNE,15.0,19.6,N/A,,Overcast,20,2012-11-02 23:56:00
4:16 PM,6.8,-4.0,61,29.95,3.0,North,10.4,20.7,N/A,,Overcast,360,2012-11-03 00:16:00
4:36 PM,6.8,-5.8,56,29.95,5.0,North,12.7,19.6,N/A,,Overcast,10,2012-11-03 00:36:00
4:56 PM,6.8,-5.8,56,29.95,5.0,North,11.5,19.6,N/A,,Overcast,10,2012-11-03 00:56:00
5:16 PM,6.8,-5.8,56,29.94,5.0,North,13.8,18.4,N/A,,Overcast,360,2012-11-03 01:16:00
5:36 PM,6.8,-5.8,56,29.95,3.0,North,11.5,-,N/A,,Overcast,10,2012-11-03 01:36:00
5:56 PM,6.8,-5.8,56,29.95,4.0,North,11.5,19.6,N/A,,Overcast,10,2012-11-03 01:56:00
6:16 PM,6.8,-5.8,56,29.95,4.0,North,12.7,21.9,N/A,,Overcast,360,2012-11-03 02:16:00
6:36 PM,6.8,-5.8,56,29.95,4.0,North,13.8,19.6,N/A,,Overcast,10,2012-11-03 02:36:00
6:56 PM,6.8,-5.8,56,29.94,4.0,North,13.8,18.4,N/A,,Overcast,360,2012-11-03 02:56:00
7:16 PM,6.8,-5.8,56,29.94,5.0,North,13.8,19.6,N/A,,Overcast,10,2012-11-03 03:16:00
7:36 PM,6.8,-7.6,52,29.94,6.0,North,12.7,17.3,N/A,,Overcast,360,2012-11-03 03:36:00
7:56 PM,6.8,-7.6,52,29.94,5.0,North,15.0,18.4,N/A,,Overcast,10,2012-11-03 03:56:00
8:16 PM,5.0,-5.8,61,29.94,5.0,North,12.7,18.4,N/A,,Overcast,10,2012-11-03 04:16:00
8:36 PM,5.0,-5.8,61,29.94,5.0,NNE,11.5,18.4,N/A,,Overcast,30,2012-11-03 04:36:00
8:56 PM,5.0,-5.8,61,29.94,3.0,NNE,10.4,19.6,N/A,,Overcast,20,2012-11-03 04:56:00
9:16 PM,3.2,-4.0,72,29.94,2.5,NNE,11.5,18.4,N/A,,Overcast,30,2012-11-03 05:16:00
9:36 PM,3.2,-4.0,72,29.94,2.5,NNE,13.8,19.6,N/A,,Overcast,30,2012-11-03 05:36:00
9:56 PM,5.0,-4.0,66,29.93,4.0,NNE,12.7,20.7,N/A,,Overcast,20,2012-11-03 05:56:00
10:16 PM,5.0,-5.8,61,29.93,5.0,NNE,13.8,-,N/A,,Overcast,30,2012-11-03 06:16:00
10:36 PM,3.2,-5.8,66,29.93,5.0,NNE,16.1,21.9,N/A,,Overcast,20,2012-11-03 06:36:00
11:16 PM,3.2,-5.8,66,29.94,6.0,NNE,15.0,-,N/A,,Overcast,20,2012-11-03 07:16:00
11:36 PM,3.2,-5.8,66,29.94,8.0,NNE,12.7,16.1,N/A,,Overcast,20,2012-11-03 07:36:00
11:56 PM,3.2,-5.8,66,29.94,8.0,NNE,11.5,-,N/A,,Overcast,20,2012-11-03 07:56:00